Location: Branche des Alpilles
(43.6087°N, 4.6976°E)
Time: 11:53:48
(UTC+00:00)

Cosmos 2297 - Pass Details

Date: 30 November 2020
Orbit: 834 x 860 km, 71.0° (Epoch: 25 January)

Event Time Altitude Azimuth Distance (km) Brightness Sun altitude
Rises 17:00:45 0° 334° (NNW) 3,412 6.9 -9.8°
Reaches altitude 10° 17:03:12 10° 334° (NNW) 2,477 6.2 -10.2°
Maximum altitude 17:08:54 84° 247° (WSW) 860 3.8 -11.2°
Drops below altitude 10° 17:14:36 10° 159° (SSE) 2,478 6.1 -12.2°
Sets 17:17:03 0° 159° (SSE) 3,413 6.8 -12.6°
